Hourly Data Report for October 21, 2013

All times are specified in Local Standard Time (LST). Add 1 hour to adjust for Daylight Saving Time where and when it is observed.

OTTAWA INTL A
ONTARIO

45°19'00.000" N
75°40'00.000" W
114.90 m
6106001
71628
YOW

Download Data

Hourly Data (October 2013)
Hourly Data Report for October 21, 2013
Temp Definition
°C
Dew Point Temp Definition
°C
Rel Hum Definition
%
Wind Dir Definition
10's deg

Wind Spd Definition
km/h
Visibility Definition
km
Stn Press Definition
kPa
Hmdx Definition


Wind Chill Definition


Weather Definition


TIME
00:00 Legend Double Dagger 2.3 0.0 85 2 12 24.1 100.15     LegendNANA
01:00 Legend Double Dagger 2.4 0.0 84 4 9 24.1 100.20     Mostly Cloudy
02:00 Legend Double Dagger 1.3 -0.2 90 5 10 24.1 100.20     LegendNANA
03:00 Legend Double Dagger 1.5 0.0 90 8 9 24.1 100.19     LegendNANA
04:00 Legend Double Dagger 1.7 -0.2 87 9 8 24.1 100.18     Mostly Cloudy
05:00 Legend Double Dagger 2.2 0.4 88 7 10 24.1 100.16     LegendNANA
06:00 Legend Double Dagger 3.1 0.8 85 8 12 24.1 100.13     LegendNANA
07:00 Legend Double Dagger 3.3 1.5 88 8 10 24.1 100.12     Cloudy
08:00 Legend Double Dagger 3.7 3.0 95 8 9 19.3 100.11     Rain
09:00 Legend Double Dagger 5.6 4.7 94 9 11 24.1 100.04     LegendNANA
10:00 Legend Double Dagger 6.5 5.9 96 11 13 19.3 99.96     Rain
11:00 Legend Double Dagger 8.8 7.9 94 9 9 19.3 99.94     LegendNANA
12:00 Legend Double Dagger 10.3 8.9 91 10 5 24.1 99.88     LegendNANA
13:00 Legend Double Dagger 14.1 9.8 75 20 11 24.1 99.76     Cloudy
14:00 Legend Double Dagger 14.5 8.5 67 20 15 24.1 99.70     LegendNANA
15:00 Legend Double Dagger 14.3 7.0 61 19 21 19.3 99.65     LegendNANA
16:00 Legend Double Dagger 14.0 6.4 60 19 14 24.1 99.62     Cloudy
17:00 Legend Double Dagger 13.1 5.8 61 17 10 24.1 99.58     LegendNANA
18:00 Legend Double Dagger 12.4 5.4 62 16 4 24.1 99.56     LegendNANA
19:00 Legend Double Dagger 11.2 6.0 70 15 10 24.1 99.51     Cloudy
20:00 Legend Double Dagger 11.7 5.8 67 14 15 24.1 99.47     LegendNANA
21:00 Legend Double Dagger 10.8 5.6 70 18 2 24.1 99.47     LegendNANA
22:00 Legend Double Dagger 10.6 6.4 75 26 9 24.1 99.46     Cloudy
23:00 Legend Double Dagger 10.8 7.0 77 24 9 24.1 99.39     LegendNANA

Notes on Data Quality.

Legend

  • E = Estimated
  • M = Missing
  • NA = Not Available
  • ‡ = Partner data that is not subject to review by the National Climate Archives
Date modified: